Year,Month,Day,Hour,Minute,Value (Times are PST for temperature in C)
2016,03,28,00,00,7.40
2016,03,28,00,01,7.30
2016,03,28,00,02,7.30
2016,03,28,00,03,7.30
2016,03,28,00,04,7.30
2016,03,28,00,05,7.20
2016,03,28,00,06,7.20
2016,03,28,00,07,7.20
2016,03,28,00,08,7.20
2016,03,28,00,09,7.20
2016,03,28,00,10,7.20
2016,03,28,00,11,7.10
2016,03,28,00,12,7.10
2016,03,28,00,13,7.10
2016,03,28,00,14,7.00
2016,03,28,00,15,7.00
2016,03,28,00,16,7.00
2016,03,28,00,17,6.90
2016,03,28,00,18,6.90
2016,03,28,00,19,6.90
2016,03,28,00,20,6.90
2016,03,28,00,21,6.90
2016,03,28,00,22,6.90
2016,03,28,00,23,6.90
2016,03,28,00,24,6.90
2016,03,28,00,25,6.90
2016,03,28,00,26,6.90
2016,03,28,00,27,6.90
2016,03,28,00,28,6.90
2016,03,28,00,29,6.90
2016,03,28,00,30,6.90
2016,03,28,00,31,6.80
2016,03,28,00,32,6.80
2016,03,28,00,33,6.80
2016,03,28,00,34,6.80
2016,03,28,00,35,6.80
2016,03,28,00,36,6.70
2016,03,28,00,37,6.70
2016,03,28,00,38,6.70
2016,03,28,00,39,6.70
2016,03,28,00,40,6.70
2016,03,28,00,41,6.70
2016,03,28,00,42,6.70
2016,03,28,00,43,6.70
2016,03,28,00,44,6.70
2016,03,28,00,45,6.70
2016,03,28,00,46,6.70
2016,03,28,00,47,6.70
2016,03,28,00,48,6.70
2016,03,28,00,49,6.70
2016,03,28,00,50,6.70
2016,03,28,00,51,6.70
2016,03,28,00,52,6.70
2016,03,28,00,53,6.70
2016,03,28,00,54,6.70
2016,03,28,00,55,6.70
2016,03,28,00,56,6.70
2016,03,28,00,57,6.60
2016,03,28,00,58,6.60
2016,03,28,00,59,6.60
2016,03,28,01,00,6.60
2016,03,28,01,01,6.60
2016,03,28,01,02,6.60
2016,03,28,01,03,6.50
2016,03,28,01,04,6.50
2016,03,28,01,05,6.50
2016,03,28,01,06,6.50
2016,03,28,01,07,6.50
2016,03,28,01,08,6.50
2016,03,28,01,09,6.60
2016,03,28,01,10,6.60
2016,03,28,01,11,6.60
2016,03,28,01,12,6.60
2016,03,28,01,13,6.60
2016,03,28,01,14,6.60
2016,03,28,01,15,6.60
2016,03,28,01,16,6.60
2016,03,28,01,17,6.60
2016,03,28,01,18,6.60
2016,03,28,01,19,6.60
2016,03,28,01,20,6.60
2016,03,28,01,21,6.60
2016,03,28,01,22,6.60
2016,03,28,01,23,6.60
2016,03,28,01,24,6.60
2016,03,28,01,25,6.60
2016,03,28,01,26,6.70
2016,03,28,01,27,6.70
2016,03,28,01,28,6.70
2016,03,28,01,29,6.70
2016,03,28,01,30,6.70
2016,03,28,01,31,6.70
2016,03,28,01,32,6.70
2016,03,28,01,33,6.70
2016,03,28,01,34,6.60
2016,03,28,01,35,6.60
2016,03,28,01,36,6.60
2016,03,28,01,37,6.60
2016,03,28,01,38,6.60
2016,03,28,01,39,6.60
2016,03,28,01,40,6.60
2016,03,28,01,41,6.60
2016,03,28,01,42,6.50
2016,03,28,01,43,6.50
2016,03,28,01,44,6.50
2016,03,28,01,45,6.50
2016,03,28,01,46,6.50
2016,03,28,01,47,6.40
2016,03,28,01,48,6.40
2016,03,28,01,49,6.40
2016,03,28,01,50,6.40
2016,03,28,01,51,6.40
2016,03,28,01,52,6.40
2016,03,28,01,53,6.40
2016,03,28,01,54,6.40
2016,03,28,01,55,6.40
2016,03,28,01,56,6.40
2016,03,28,01,57,6.40
2016,03,28,01,58,6.40
2016,03,28,01,59,6.30
2016,03,28,02,00,6.30
2016,03,28,02,01,6.30
2016,03,28,02,02,6.30
2016,03,28,02,03,6.30
2016,03,28,02,04,6.30
2016,03,28,02,05,6.30
2016,03,28,02,06,6.30
2016,03,28,02,07,6.30
2016,03,28,02,08,6.30
2016,03,28,02,09,6.20
2016,03,28,02,10,6.20
2016,03,28,02,11,6.20
2016,03,28,02,12,6.20
2016,03,28,02,13,6.20
2016,03,28,02,14,6.20
2016,03,28,02,15,6.20
2016,03,28,02,16,6.10
2016,03,28,02,17,6.10
2016,03,28,02,18,6.10
2016,03,28,02,19,6.00
2016,03,28,02,20,6.00
2016,03,28,02,21,6.00
2016,03,28,02,22,5.90
2016,03,28,02,23,5.90
2016,03,28,02,24,5.90
2016,03,28,02,25,5.90
2016,03,28,02,26,5.90
2016,03,28,02,27,5.90
2016,03,28,02,28,6.00
2016,03,28,02,29,6.00
2016,03,28,02,30,6.00
2016,03,28,02,31,6.00
2016,03,28,02,32,6.00
2016,03,28,02,33,6.00
2016,03,28,02,34,6.10
2016,03,28,02,35,6.00
2016,03,28,02,36,6.00
2016,03,28,02,37,5.90
2016,03,28,02,38,5.90
2016,03,28,02,39,5.90
2016,03,28,02,40,5.80
2016,03,28,02,41,5.70
2016,03,28,02,42,5.70
2016,03,28,02,43,5.60
2016,03,28,02,44,5.60
2016,03,28,02,45,5.50
2016,03,28,02,46,5.50
2016,03,28,02,47,5.40
2016,03,28,02,48,5.40
2016,03,28,02,49,5.40
2016,03,28,02,50,5.40
2016,03,28,02,51,5.40
2016,03,28,02,52,5.40
2016,03,28,02,53,5.40
2016,03,28,02,54,5.40
2016,03,28,02,55,5.40
2016,03,28,02,56,5.40
2016,03,28,02,57,5.40
2016,03,28,02,58,5.40
2016,03,28,02,59,5.40
2016,03,28,03,00,5.30
2016,03,28,03,01,5.30
2016,03,28,03,02,5.30
2016,03,28,03,03,5.30
2016,03,28,03,04,5.30
2016,03,28,03,05,5.30
2016,03,28,03,06,5.20
2016,03,28,03,07,5.20
2016,03,28,03,08,5.20
2016,03,28,03,09,5.20
2016,03,28,03,10,5.20
2016,03,28,03,11,5.10
2016,03,28,03,12,5.10
2016,03,28,03,13,5.10
2016,03,28,03,14,5.10
2016,03,28,03,15,5.10
2016,03,28,03,16,5.20
2016,03,28,03,17,5.20
2016,03,28,03,18,5.20
2016,03,28,03,19,5.20
2016,03,28,03,20,5.30
2016,03,28,03,21,5.30
2016,03,28,03,22,5.40
2016,03,28,03,23,5.40
2016,03,28,03,24,5.40
2016,03,28,03,25,5.40
2016,03,28,03,26,5.50
2016,03,28,03,27,5.50
2016,03,28,03,28,5.40
2016,03,28,03,29,5.40
2016,03,28,03,30,5.30
2016,03,28,03,31,5.30
2016,03,28,03,32,5.20
2016,03,28,03,33,5.20
2016,03,28,03,34,5.10
2016,03,28,03,35,5.10
2016,03,28,03,36,5.10
2016,03,28,03,37,5.00
2016,03,28,03,38,4.90
2016,03,28,03,39,4.90
2016,03,28,03,40,4.90
2016,03,28,03,41,4.90
2016,03,28,03,42,4.80
2016,03,28,03,43,4.80
2016,03,28,03,44,4.80
2016,03,28,03,45,4.80
2016,03,28,03,46,4.80
2016,03,28,03,47,4.80
2016,03,28,03,48,4.70
2016,03,28,03,49,4.70
2016,03,28,03,50,4.70
2016,03,28,03,51,4.70
2016,03,28,03,52,4.70
2016,03,28,03,53,4.70
2016,03,28,03,54,4.70
2016,03,28,03,55,4.60
2016,03,28,03,56,4.60
2016,03,28,03,57,4.60
2016,03,28,03,58,4.60
2016,03,28,03,59,4.60
2016,03,28,04,00,4.60
2016,03,28,04,01,4.60
2016,03,28,04,02,4.60
2016,03,28,04,03,4.60
2016,03,28,04,04,4.60
2016,03,28,04,05,4.60
2016,03,28,04,06,4.60
2016,03,28,04,07,4.60
2016,03,28,04,08,4.60
2016,03,28,04,09,4.60
2016,03,28,04,10,4.60
2016,03,28,04,11,4.60
2016,03,28,04,12,4.60
2016,03,28,04,13,4.60
2016,03,28,04,14,4.50
2016,03,28,04,15,4.60
2016,03,28,04,16,4.60
2016,03,28,04,17,4.60
2016,03,28,04,18,4.60
2016,03,28,04,19,4.60
2016,03,28,04,20,4.60
2016,03,28,04,21,4.60
2016,03,28,04,22,4.60
2016,03,28,04,23,4.60
2016,03,28,04,24,4.60
2016,03,28,04,25,4.60
2016,03,28,04,26,4.60
2016,03,28,04,27,4.50
2016,03,28,04,28,4.50
2016,03,28,04,29,4.50
2016,03,28,04,30,4.50
2016,03,28,04,31,4.50
2016,03,28,04,32,4.50
2016,03,28,04,33,4.50
2016,03,28,04,34,4.50
2016,03,28,04,35,4.50
2016,03,28,04,36,4.50
2016,03,28,04,37,4.50
2016,03,28,04,38,4.50
2016,03,28,04,39,4.60
2016,03,28,04,40,4.50
2016,03,28,04,41,4.50
2016,03,28,04,42,4.50
2016,03,28,04,43,4.50
2016,03,28,04,44,4.50
2016,03,28,04,45,4.50
2016,03,28,04,46,4.50
2016,03,28,04,47,4.40
2016,03,28,04,48,4.40
2016,03,28,04,49,4.40
2016,03,28,04,50,4.40
2016,03,28,04,51,4.40
2016,03,28,04,52,4.40
2016,03,28,04,53,4.40
2016,03,28,04,54,4.40
2016,03,28,04,55,4.40
2016,03,28,04,56,4.30
2016,03,28,04,57,4.30
2016,03,28,04,58,4.30
2016,03,28,04,59,4.30
2016,03,28,05,00,4.30
2016,03,28,05,01,4.30
2016,03,28,05,02,4.30
2016,03,28,05,03,4.30
2016,03,28,05,04,4.30
2016,03,28,05,05,4.20
2016,03,28,05,06,4.20
2016,03,28,05,07,4.20
2016,03,28,05,08,4.20
2016,03,28,05,09,4.20
2016,03,28,05,10,4.20
2016,03,28,05,11,4.20
2016,03,28,05,12,4.10
2016,03,28,05,13,4.10
2016,03,28,05,14,4.10
2016,03,28,05,15,4.10
2016,03,28,05,16,4.10
2016,03,28,05,17,4.00
2016,03,28,05,18,4.00
2016,03,28,05,19,4.00
2016,03,28,05,20,4.00
2016,03,28,05,21,3.90
2016,03,28,05,22,3.90
2016,03,28,05,23,3.90
2016,03,28,05,24,3.90
2016,03,28,05,25,3.90
2016,03,28,05,26,3.90
2016,03,28,05,27,3.90
2016,03,28,05,28,3.80
2016,03,28,05,29,3.80
2016,03,28,05,30,3.80
2016,03,28,05,31,3.80
2016,03,28,05,32,3.80
2016,03,28,05,33,3.80
2016,03,28,05,34,3.70
2016,03,28,05,35,3.70
2016,03,28,05,36,3.70
2016,03,28,05,37,3.70
2016,03,28,05,38,3.70
2016,03,28,05,39,3.70
2016,03,28,05,40,3.60
2016,03,28,05,41,3.60
2016,03,28,05,42,3.60
2016,03,28,05,43,3.60
2016,03,28,05,44,3.60
2016,03,28,05,45,3.60
2016,03,28,05,46,3.60
2016,03,28,05,47,3.60
2016,03,28,05,48,3.70
2016,03,28,05,49,3.70
2016,03,28,05,50,3.70
2016,03,28,05,51,3.80
2016,03,28,05,52,3.80
2016,03,28,05,53,3.90
2016,03,28,05,54,3.90
2016,03,28,05,55,4.00
2016,03,28,05,56,4.00
2016,03,28,05,57,4.10
2016,03,28,05,58,4.10
2016,03,28,05,59,4.10
2016,03,28,06,00,4.20
2016,03,28,06,01,4.20
2016,03,28,06,02,4.20
2016,03,28,06,03,4.20
2016,03,28,06,04,4.20
2016,03,28,06,05,4.20
2016,03,28,06,06,4.20
2016,03,28,06,07,4.20
2016,03,28,06,08,4.20
2016,03,28,06,09,4.20
2016,03,28,06,10,4.20
2016,03,28,06,11,4.20
2016,03,28,06,12,4.20
2016,03,28,06,13,4.20
2016,03,28,06,14,4.20
2016,03,28,06,15,4.20
2016,03,28,06,16,4.20
2016,03,28,06,17,4.20
2016,03,28,06,18,4.20
2016,03,28,06,19,4.10
2016,03,28,06,20,4.10
2016,03,28,06,21,4.10
2016,03,28,06,22,4.10
2016,03,28,06,23,4.00
2016,03,28,06,24,4.00
2016,03,28,06,25,4.00
2016,03,28,06,26,4.00
2016,03,28,06,27,3.90
2016,03,28,06,28,3.90
2016,03,28,06,29,3.90
2016,03,28,06,30,3.90
2016,03,28,06,31,3.90
2016,03,28,06,32,3.90
2016,03,28,06,33,3.90
2016,03,28,06,34,3.90
2016,03,28,06,35,3.90
2016,03,28,06,36,3.90
2016,03,28,06,37,4.00
2016,03,28,06,38,4.00
2016,03,28,06,39,4.00
2016,03,28,06,40,4.00
2016,03,28,06,41,4.00
2016,03,28,06,42,4.00
2016,03,28,06,43,4.10
2016,03,28,06,44,4.10
2016,03,28,06,45,4.10
2016,03,28,06,46,4.10
2016,03,28,06,47,4.10
2016,03,28,06,48,4.20
2016,03,28,06,49,4.20
2016,03,28,06,50,4.30
2016,03,28,06,51,4.30
2016,03,28,06,52,4.30
2016,03,28,06,53,4.40
2016,03,28,06,54,4.50
2016,03,28,06,55,4.60
2016,03,28,06,56,4.60
2016,03,28,06,57,4.70
2016,03,28,06,58,4.70
2016,03,28,06,59,4.80
2016,03,28,07,00,4.80
2016,03,28,07,01,4.80
2016,03,28,07,02,4.90
2016,03,28,07,03,4.90
2016,03,28,07,04,4.90
2016,03,28,07,05,5.00
2016,03,28,07,06,5.00
2016,03,28,07,07,5.10
2016,03,28,07,08,5.10
2016,03,28,07,09,5.10
2016,03,28,07,10,5.10
2016,03,28,07,11,5.10
2016,03,28,07,12,5.20
2016,03,28,07,13,5.20
2016,03,28,07,14,5.20
2016,03,28,07,15,5.20
2016,03,28,07,16,5.20
2016,03,28,07,17,5.20
2016,03,28,07,18,5.30
2016,03,28,07,19,5.30
2016,03,28,07,20,5.30
2016,03,28,07,21,5.30
2016,03,28,07,22,5.40
2016,03,28,07,23,5.40
2016,03,28,07,24,5.40
2016,03,28,07,25,5.40
2016,03,28,07,26,5.50
2016,03,28,07,27,5.50
2016,03,28,07,28,5.60
2016,03,28,07,29,5.60
2016,03,28,07,30,5.70
2016,03,28,07,31,5.70
2016,03,28,07,32,5.70
2016,03,28,07,33,5.80
2016,03,28,07,34,5.80
2016,03,28,07,35,5.80
2016,03,28,07,36,5.90
2016,03,28,07,37,5.90
2016,03,28,07,38,5.90
2016,03,28,07,39,6.00
2016,03,28,07,40,6.00
2016,03,28,07,41,6.10
2016,03,28,07,42,6.10
2016,03,28,07,43,6.10
2016,03,28,07,44,6.10
2016,03,28,07,45,6.10
2016,03,28,07,46,6.20
2016,03,28,07,47,6.20
2016,03,28,07,48,6.20
2016,03,28,07,49,6.20
2016,03,28,07,50,6.10
2016,03,28,07,51,6.10
2016,03,28,07,52,6.20
2016,03,28,07,53,6.20
2016,03,28,07,54,6.20
2016,03,28,07,55,6.20
2016,03,28,07,56,6.30
2016,03,28,07,57,6.30
2016,03,28,07,58,6.30
2016,03,28,07,59,6.40
2016,03,28,08,00,6.40
2016,03,28,08,01,6.50
2016,03,28,08,02,6.60
2016,03,28,08,03,6.60
2016,03,28,08,04,6.70
2016,03,28,08,05,6.70
2016,03,28,08,06,6.80
2016,03,28,08,07,6.80
2016,03,28,08,08,6.90
2016,03,28,08,09,6.90
2016,03,28,08,10,7.00
2016,03,28,08,11,7.10
2016,03,28,08,12,7.20
2016,03,28,08,13,7.20
2016,03,28,08,14,7.20
2016,03,28,08,15,7.30
2016,03,28,08,16,7.30
2016,03,28,08,17,7.40
2016,03,28,08,18,7.40
2016,03,28,08,19,7.50
2016,03,28,08,20,7.50
2016,03,28,08,21,7.60
2016,03,28,08,22,7.60
2016,03,28,08,23,7.70
2016,03,28,08,24,7.70
2016,03,28,08,25,7.80
2016,03,28,08,26,7.80
2016,03,28,08,27,7.80
2016,03,28,08,28,7.80
2016,03,28,08,29,7.90
2016,03,28,08,30,7.90
2016,03,28,08,31,7.90
2016,03,28,08,32,7.90
2016,03,28,08,33,8.00
2016,03,28,08,34,8.00
2016,03,28,08,35,8.00
2016,03,28,08,36,8.10
2016,03,28,08,37,8.10
2016,03,28,08,38,8.10
2016,03,28,08,39,8.10
2016,03,28,08,40,8.10
2016,03,28,08,41,8.20
2016,03,28,08,42,8.20
2016,03,28,08,43,8.20
2016,03,28,08,44,8.30
2016,03,28,08,45,8.30
2016,03,28,08,46,8.30
2016,03,28,08,47,8.40
2016,03,28,08,48,8.40
2016,03,28,08,49,8.40
2016,03,28,08,50,8.40
2016,03,28,08,51,8.40
2016,03,28,08,52,8.50
2016,03,28,08,53,8.50
2016,03,28,08,54,8.60
2016,03,28,08,55,8.60
2016,03,28,08,56,8.60
2016,03,28,08,57,8.60
2016,03,28,08,58,8.70
2016,03,28,08,59,8.70
2016,03,28,09,00,8.80
2016,03,28,09,01,8.90
2016,03,28,09,02,8.90
2016,03,28,09,03,9.00
2016,03,28,09,04,9.00
2016,03,28,09,05,9.00
2016,03,28,09,06,9.10
2016,03,28,09,07,9.10
2016,03,28,09,08,9.10
2016,03,28,09,09,9.10
2016,03,28,09,10,9.10
2016,03,28,09,11,9.10
2016,03,28,09,12,9.00
2016,03,28,09,13,9.00
2016,03,28,09,14,9.00
2016,03,28,09,15,8.90
2016,03,28,09,16,8.90
2016,03,28,09,17,8.90
2016,03,28,09,18,8.90
2016,03,28,09,19,8.90
2016,03,28,09,20,8.90
2016,03,28,09,21,9.00
2016,03,28,09,22,9.00
2016,03,28,09,23,9.10
2016,03,28,09,24,9.10
2016,03,28,09,25,9.20
2016,03,28,09,26,9.20
2016,03,28,09,27,9.20
2016,03,28,09,28,9.20
2016,03,28,09,29,9.20
2016,03,28,09,30,9.20
2016,03,28,09,31,9.20
2016,03,28,09,32,9.20
2016,03,28,09,33,9.30
2016,03,28,09,34,9.30
2016,03,28,09,35,9.30
2016,03,28,09,36,9.40
2016,03,28,09,37,9.50
2016,03,28,09,38,9.50
2016,03,28,09,39,9.60
2016,03,28,09,40,9.60
2016,03,28,09,41,9.70
2016,03,28,09,42,9.70
2016,03,28,09,43,9.80
2016,03,28,09,44,9.80
2016,03,28,09,45,9.80
2016,03,28,09,46,9.80
2016,03,28,09,47,9.80
2016,03,28,09,48,9.90
2016,03,28,09,49,9.90
2016,03,28,09,50,9.90
2016,03,28,09,51,10.00
2016,03,28,09,52,9.90
2016,03,28,09,53,9.90
2016,03,28,09,54,9.90
2016,03,28,09,55,9.80
2016,03,28,09,56,9.80
2016,03,28,09,57,9.80
2016,03,28,09,58,9.70
2016,03,28,09,59,9.70
2016,03,28,10,00,9.70
2016,03,28,10,01,9.70
2016,03,28,10,02,9.70
2016,03,28,10,03,9.70
2016,03,28,10,04,9.70
2016,03,28,10,05,9.70
2016,03,28,10,06,9.70
2016,03,28,10,07,9.70
2016,03,28,10,08,9.70
2016,03,28,10,09,9.70
2016,03,28,10,10,9.70
2016,03,28,10,11,9.70
2016,03,28,10,12,9.70
2016,03,28,10,13,9.70
2016,03,28,10,14,9.70
2016,03,28,10,15,9.70
2016,03,28,10,16,9.80
2016,03,28,10,17,9.80
2016,03,28,10,18,9.80
2016,03,28,10,19,9.80
2016,03,28,10,20,9.90
2016,03,28,10,21,9.90
2016,03,28,10,22,9.90
2016,03,28,10,23,9.90
2016,03,28,10,24,9.90
2016,03,28,10,25,10.00
2016,03,28,10,26,10.00
2016,03,28,10,27,10.00
2016,03,28,10,28,10.10
2016,03,28,10,29,10.10
2016,03,28,10,30,10.10
2016,03,28,10,31,10.10
2016,03,28,10,32,10.10
2016,03,28,10,33,10.10
2016,03,28,10,34,10.10
2016,03,28,10,35,10.10
2016,03,28,10,36,10.00
2016,03,28,10,37,10.00
2016,03,28,10,38,9.90
2016,03,28,10,39,9.90
2016,03,28,10,40,9.90
2016,03,28,10,41,9.90
2016,03,28,10,42,9.90
2016,03,28,10,43,9.90
2016,03,28,10,44,9.90
2016,03,28,10,45,9.90
2016,03,28,10,46,9.90
2016,03,28,10,47,9.90
2016,03,28,10,48,9.90
2016,03,28,10,49,10.00
2016,03,28,10,50,10.00
2016,03,28,10,51,10.10
2016,03,28,10,52,10.20
2016,03,28,10,53,10.20
2016,03,28,10,54,10.20
2016,03,28,10,55,10.30
2016,03,28,10,56,10.30
2016,03,28,10,57,10.40
2016,03,28,10,58,10.40
2016,03,28,10,59,10.40
2016,03,28,11,00,10.40
2016,03,28,11,01,10.40
2016,03,28,11,02,10.40
2016,03,28,11,03,10.40
2016,03,28,11,04,10.50
2016,03,28,11,05,10.50
2016,03,28,11,06,10.50
2016,03,28,11,07,10.50
2016,03,28,11,08,10.50
2016,03,28,11,09,10.40
2016,03,28,11,10,10.40
2016,03,28,11,11,10.30
2016,03,28,11,12,10.30
2016,03,28,11,13,10.30
2016,03,28,11,14,10.30
2016,03,28,11,15,10.30
2016,03,28,11,16,10.30
2016,03,28,11,17,10.40
2016,03,28,11,18,10.40
2016,03,28,11,19,10.50
2016,03,28,11,20,10.50
2016,03,28,11,21,10.60
2016,03,28,11,22,10.60
2016,03,28,11,23,10.60
2016,03,28,11,24,10.60
2016,03,28,11,25,10.60
2016,03,28,11,26,10.60
2016,03,28,11,27,10.60
2016,03,28,11,28,10.60
2016,03,28,11,29,10.70
2016,03,28,11,30,10.70
2016,03,28,11,31,10.70
2016,03,28,11,32,10.70
2016,03,28,11,33,10.80
2016,03,28,11,34,10.80
2016,03,28,11,35,10.80
2016,03,28,11,36,10.80
2016,03,28,11,37,10.80
2016,03,28,11,38,10.70
2016,03,28,11,39,10.70
2016,03,28,11,40,10.60
2016,03,28,11,41,10.60
2016,03,28,11,42,10.60
2016,03,28,11,43,10.60
2016,03,28,11,44,10.60
2016,03,28,11,45,10.60
2016,03,28,11,46,10.60
2016,03,28,11,47,10.60
2016,03,28,11,48,10.60
2016,03,28,11,49,10.60
2016,03,28,11,50,10.70
2016,03,28,11,51,10.70
2016,03,28,11,52,10.80
2016,03,28,11,53,10.80
2016,03,28,11,54,10.90
2016,03,28,11,55,10.90
2016,03,28,11,56,10.90
2016,03,28,11,57,10.90
2016,03,28,11,58,10.90
2016,03,28,11,59,10.80
2016,03,28,12,00,10.90
2016,03,28,12,01,10.90
2016,03,28,12,02,10.90
2016,03,28,12,03,10.90
2016,03,28,12,04,10.90
2016,03,28,12,05,11.00
2016,03,28,12,06,11.10
2016,03,28,12,07,11.10
2016,03,28,12,08,11.00
2016,03,28,12,09,10.90
2016,03,28,12,10,10.90
2016,03,28,12,11,10.90
2016,03,28,12,12,11.00
2016,03,28,12,13,11.00
2016,03,28,12,14,10.90
2016,03,28,12,15,10.90
2016,03,28,12,16,11.00
2016,03,28,12,17,11.00
2016,03,28,12,18,11.00
2016,03,28,12,19,11.10
2016,03,28,12,20,11.10
2016,03,28,12,21,11.10
2016,03,28,12,22,11.20
2016,03,28,12,23,11.30
2016,03,28,12,24,11.30
2016,03,28,12,25,11.30
2016,03,28,12,26,11.30
2016,03,28,12,27,11.30
2016,03,28,12,28,11.30
2016,03,28,12,29,11.40
2016,03,28,12,30,11.50
2016,03,28,12,31,11.50
2016,03,28,12,32,11.60
2016,03,28,12,33,11.70
2016,03,28,12,34,11.70
2016,03,28,12,35,11.70
2016,03,28,12,36,11.70
2016,03,28,12,37,11.70
2016,03,28,12,38,11.70
2016,03,28,12,39,11.70
2016,03,28,12,40,11.80
2016,03,28,12,41,11.80
2016,03,28,12,42,11.70
2016,03,28,12,43,11.70
2016,03,28,12,44,11.70
2016,03,28,12,45,11.70
2016,03,28,12,46,11.60
2016,03,28,12,47,11.50
2016,03,28,12,48,11.40
2016,03,28,12,49,11.30
2016,03,28,12,50,11.20
2016,03,28,12,51,11.20
2016,03,28,12,52,11.20
2016,03,28,12,53,11.30
2016,03,28,12,54,11.30
2016,03,28,12,55,11.30
2016,03,28,12,56,11.40
2016,03,28,12,57,11.40
2016,03,28,12,58,11.50
2016,03,28,12,59,11.60
2016,03,28,13,00,11.60
2016,03,28,13,01,11.70
2016,03,28,13,02,11.80
2016,03,28,13,03,11.90
2016,03,28,13,04,12.10
2016,03,28,13,05,12.20
2016,03,28,13,06,12.30
2016,03,28,13,07,12.40
2016,03,28,13,08,12.60
2016,03,28,13,09,12.70
2016,03,28,13,10,12.70
2016,03,28,13,11,12.70
2016,03,28,13,12,12.80
2016,03,28,13,13,12.80
2016,03,28,13,14,12.80
2016,03,28,13,15,12.90
2016,03,28,13,16,13.00
2016,03,28,13,17,13.00
2016,03,28,13,18,13.10
2016,03,28,13,19,13.20
2016,03,28,13,20,13.10
2016,03,28,13,21,13.00
2016,03,28,13,22,12.90
2016,03,28,13,23,12.80
2016,03,28,13,24,12.80
2016,03,28,13,25,12.70
2016,03,28,13,26,12.70
2016,03,28,13,27,12.70
2016,03,28,13,28,12.70
2016,03,28,13,29,12.60
2016,03,28,13,30,12.60
2016,03,28,13,31,12.60
2016,03,28,13,32,12.50
2016,03,28,13,33,12.50
2016,03,28,13,34,12.40
2016,03,28,13,35,12.40
2016,03,28,13,36,12.40
2016,03,28,13,37,12.40
2016,03,28,13,38,12.40
2016,03,28,13,39,12.50
2016,03,28,13,40,12.50
2016,03,28,13,41,12.50
2016,03,28,13,42,12.50
2016,03,28,13,43,12.60
2016,03,28,13,44,12.60
2016,03,28,13,45,12.50
2016,03,28,13,46,12.50
2016,03,28,13,47,12.50
2016,03,28,13,48,12.50
2016,03,28,13,49,12.50
2016,03,28,13,50,12.60
2016,03,28,13,51,12.60
2016,03,28,13,52,12.70
2016,03,28,13,53,12.80
2016,03,28,13,54,12.80
2016,03,28,13,55,12.80
2016,03,28,13,56,12.80
2016,03,28,13,57,12.80
2016,03,28,13,58,12.80
2016,03,28,13,59,12.80
2016,03,28,14,00,12.90
2016,03,28,14,01,13.10
2016,03,28,14,02,13.20
2016,03,28,14,03,13.30
2016,03,28,14,04,13.40
2016,03,28,14,05,13.40
2016,03,28,14,06,13.40
2016,03,28,14,07,13.40
2016,03,28,14,08,13.30
2016,03,28,14,09,13.30
2016,03,28,14,10,13.30
2016,03,28,14,11,13.30
2016,03,28,14,12,13.10
2016,03,28,14,13,13.00
2016,03,28,14,14,13.00
2016,03,28,14,15,13.00
2016,03,28,14,16,13.00
2016,03,28,14,17,12.90
2016,03,28,14,18,12.90
2016,03,28,14,19,12.80
2016,03,28,14,20,12.70
2016,03,28,14,21,12.60
2016,03,28,14,22,12.50
2016,03,28,14,23,12.40
2016,03,28,14,24,12.30
2016,03,28,14,25,12.30
2016,03,28,14,26,12.40
2016,03,28,14,27,12.40
2016,03,28,14,28,12.30
2016,03,28,14,29,12.30
2016,03,28,14,30,12.10
2016,03,28,14,31,12.00
2016,03,28,14,32,12.00
2016,03,28,14,33,12.00
2016,03,28,14,34,11.90
2016,03,28,14,35,11.90
2016,03,28,14,36,12.00
2016,03,28,14,37,12.10
2016,03,28,14,38,12.20
2016,03,28,14,39,12.30
2016,03,28,14,40,12.30
2016,03,28,14,41,12.30
2016,03,28,14,42,12.30
2016,03,28,14,43,12.30
2016,03,28,14,44,12.40
2016,03,28,14,45,12.30
2016,03,28,14,46,12.30
2016,03,28,14,47,12.40
2016,03,28,14,48,12.40
2016,03,28,14,49,12.40
2016,03,28,14,50,12.40
2016,03,28,14,51,12.40
2016,03,28,14,52,12.30
2016,03,28,14,53,12.30
2016,03,28,14,54,12.30
2016,03,28,14,55,12.30
2016,03,28,14,56,12.40
2016,03,28,14,57,12.40
2016,03,28,14,58,12.50
2016,03,28,14,59,12.60
2016,03,28,15,00,12.70
2016,03,28,15,01,12.80
2016,03,28,15,02,12.80
2016,03,28,15,03,12.70
2016,03,28,15,04,12.60
2016,03,28,15,05,12.60
2016,03,28,15,06,12.60
2016,03,28,15,07,12.60
2016,03,28,15,08,12.60
2016,03,28,15,09,12.70
2016,03,28,15,10,12.70
2016,03,28,15,11,12.70
2016,03,28,15,12,12.70
2016,03,28,15,13,12.70
2016,03,28,15,14,12.80
2016,03,28,15,15,12.80
2016,03,28,15,16,12.70
2016,03,28,15,17,12.70
2016,03,28,15,18,12.60
2016,03,28,15,19,12.50
2016,03,28,15,20,12.40
2016,03,28,15,21,12.30
2016,03,28,15,22,12.30
2016,03,28,15,23,12.30
2016,03,28,15,24,12.30
2016,03,28,15,25,12.30
2016,03,28,15,26,12.30
2016,03,28,15,27,12.40
2016,03,28,15,28,12.40
2016,03,28,15,29,12.30
2016,03,28,15,30,12.40
2016,03,28,15,31,12.40
2016,03,28,15,32,12.40
2016,03,28,15,33,12.40
2016,03,28,15,34,12.40
2016,03,28,15,35,12.40
2016,03,28,15,36,12.40
2016,03,28,15,37,12.50
2016,03,28,15,38,12.60
2016,03,28,15,39,12.60
2016,03,28,15,40,12.60
2016,03,28,15,41,12.60
2016,03,28,15,42,12.50
2016,03,28,15,43,12.50
2016,03,28,15,44,12.50
2016,03,28,15,45,12.50
2016,03,28,15,46,12.50
2016,03,28,15,47,12.40
2016,03,28,15,48,12.50
2016,03,28,15,49,12.60
2016,03,28,15,50,12.60
2016,03,28,15,51,12.60
2016,03,28,15,52,12.60
2016,03,28,15,53,12.60
2016,03,28,15,54,12.60
2016,03,28,15,55,12.60
2016,03,28,15,56,12.60
2016,03,28,15,57,12.70
2016,03,28,15,58,12.70
2016,03,28,15,59,12.60
2016,03,28,16,00,12.60
2016,03,28,16,01,12.60
2016,03,28,16,02,12.60
2016,03,28,16,03,12.60
2016,03,28,16,04,12.70
2016,03,28,16,05,12.80
2016,03,28,16,06,12.90
2016,03,28,16,07,13.00
2016,03,28,16,08,13.00
2016,03,28,16,09,13.10
2016,03,28,16,10,13.00
2016,03,28,16,11,12.90
2016,03,28,16,12,12.90
2016,03,28,16,13,12.90
2016,03,28,16,14,12.90
2016,03,28,16,15,12.90
2016,03,28,16,16,12.90
2016,03,28,16,17,12.90
2016,03,28,16,18,12.80
2016,03,28,16,19,12.80
2016,03,28,16,20,12.80
2016,03,28,16,21,12.80
2016,03,28,16,22,12.90
2016,03,28,16,23,12.90
2016,03,28,16,24,12.90
2016,03,28,16,25,13.00
2016,03,28,16,26,13.10
2016,03,28,16,27,13.20
2016,03,28,16,28,13.30
2016,03,28,16,29,13.40
2016,03,28,16,30,13.50
2016,03,28,16,31,13.50
2016,03,28,16,32,13.50
2016,03,28,16,33,13.50
2016,03,28,16,34,13.60
2016,03,28,16,35,13.80
2016,03,28,16,36,13.80
2016,03,28,16,37,13.90
2016,03,28,16,38,13.90
2016,03,28,16,39,13.90
2016,03,28,16,40,14.00
2016,03,28,16,41,14.00
2016,03,28,16,42,13.90
2016,03,28,16,43,13.80
2016,03,28,16,44,13.70
2016,03,28,16,45,13.50
2016,03,28,16,46,13.40
2016,03,28,16,47,13.30
2016,03,28,16,48,13.30
2016,03,28,16,49,13.30
2016,03,28,16,50,13.20
2016,03,28,16,51,13.20
2016,03,28,16,52,13.20
2016,03,28,16,53,13.20
2016,03,28,16,54,13.20
2016,03,28,16,55,13.20
2016,03,28,16,56,13.30
2016,03,28,16,57,13.30
2016,03,28,16,58,13.30
2016,03,28,16,59,13.30
2016,03,28,17,00,13.30
2016,03,28,17,01,13.40
2016,03,28,17,02,13.40
2016,03,28,17,03,13.40
2016,03,28,17,04,13.40
2016,03,28,17,05,13.50
2016,03,28,17,06,13.50
2016,03,28,17,07,13.50
2016,03,28,17,08,13.40
2016,03,28,17,09,13.30
2016,03,28,17,10,13.30
2016,03,28,17,11,13.30
2016,03,28,17,12,13.30
2016,03,28,17,13,13.30
2016,03,28,17,14,13.30
2016,03,28,17,15,13.20
2016,03,28,17,16,13.20
2016,03,28,17,17,13.20
2016,03,28,17,18,13.20
2016,03,28,17,19,13.20
2016,03,28,17,20,13.30
2016,03,28,17,21,13.30
2016,03,28,17,22,13.30
2016,03,28,17,23,13.30
2016,03,28,17,24,13.30
2016,03,28,17,25,13.30
2016,03,28,17,26,13.30
2016,03,28,17,27,13.30
2016,03,28,17,28,13.30
2016,03,28,17,29,13.20
2016,03,28,17,30,13.10
2016,03,28,17,31,13.00
2016,03,28,17,32,12.90
2016,03,28,17,33,12.90
2016,03,28,17,34,12.90
2016,03,28,17,35,12.80
2016,03,28,17,36,12.80
2016,03,28,17,37,12.70
2016,03,28,17,38,12.70
2016,03,28,17,39,12.70
2016,03,28,17,40,12.80
2016,03,28,17,41,12.80
2016,03,28,17,42,12.80
2016,03,28,17,43,12.80
2016,03,28,17,44,12.80
2016,03,28,17,45,12.70
2016,03,28,17,46,12.70
2016,03,28,17,47,12.60